Location: Colorado Springs
(38.8340°N, 104.8210°W)
Time: 19:41:27
(UTC-06:00)

Vanguard 2 Rocket - All Passes

Search period start: 19 October 2017 00:00
Search period end: 29 October 2017 00:00
Orbit: 555 x 3327 km, 32.9° (Epoch: 18 October)

Date Brightness Start Highest point End Pass type
(mag) Time Alt. Az. Time Alt. Az. Time Alt. Az.
19 Oct - 12:42:13 10° SW 12:47:06 35° SSE 12:54:48 10° E daylight
19 Oct - 14:53:15 10° WSW 15:00:14 61° S 15:12:53 10° E daylight
19 Oct - 17:05:35 10° W 17:15:05 54° SSW 17:31:12 10° ESE daylight
19 Oct - 19:19:44 10° W 19:31:01 33° SSW 19:46:39 10° SSE visible
19 Oct - 21:42:42 10° SW 21:47:07 11° SW 21:51:47 10° SSW visible
20 Oct - 11:44:32 10° SSW 11:48:16 22° SE 11:53:22 10° E daylight
20 Oct - 13:54:44 10° WSW 14:00:38 55° SSE 14:11:00 10° E daylight
20 Oct - 16:06:36 10° W 16:14:45 58° S 16:29:13 10° ESE daylight
20 Oct - 18:19:49 10° W 18:30:11 39° SSW 18:45:56 10° SE visible
20 Oct - 20:37:28 10° WSW 20:46:13 17° SW 20:56:35 10° S visible
21 Oct - 10:48:06 10° SSE 10:49:36 11° SE 10:51:14 10° ESE daylight
21 Oct - 12:56:25 10° SW 13:01:23 44° SSE 13:09:30 10° E daylight
21 Oct - 15:07:53 10° W 15:14:47 59° S 15:27:14 10° ESE daylight
21 Oct - 17:20:25 10° W 17:29:36 44° SSW 17:44:40 10° SE daylight
21 Oct - 19:35:43 10° WSW 19:45:22 23° SSW 19:58:00 10° S visible
22 Oct - 11:58:18 10° SW 12:02:25 31° SSE 12:08:23 10° E daylight
22 Oct - 14:09:17 10° WSW 14:15:09 57° S 14:25:28 10° ESE daylight
22 Oct - 16:21:22 10° W 16:29:19 49° SSW 16:43:04 10° SE daylight
22 Oct - 18:35:14 10° W 18:44:39 28° SSW 18:58:09 10° SSE visible
23 Oct - 11:00:36 10° SSW 11:03:39 19° SSE 11:07:27 10° ESE daylight
23 Oct - 13:10:51 10° WSW 13:15:50 50° S 13:24:05 10° E daylight
23 Oct - 15:22:34 10° W 15:29:22 52° S 15:41:22 10° ESE daylight
23 Oct - 17:35:31 10° W 17:44:08 33° SSW 17:57:31 10° SSE daylight
23 Oct - 19:53:36 10° WSW 19:59:50 14° SW 20:07:09 10° S visible
24 Oct - 12:12:31 10° SW 12:16:46 39° SSE 12:23:08 10° E daylight
24 Oct - 14:23:56 10° W 14:29:44 54° S 14:39:49 10° ESE daylight
24 Oct - 16:36:17 10° W 16:43:54 38° SSW 16:56:27 10° SE daylight
24 Oct - 18:51:37 10° WSW 18:59:11 19° SSW 19:09:04 10° S visible
25 Oct - 11:14:20 10° SW 11:17:54 27° SSE 11:22:33 10° E daylight
25 Oct - 13:25:25 10° WSW 13:30:22 51° S 13:38:34 10° ESE daylight
25 Oct - 15:37:23 10° W 15:43:58 42° SSW 15:55:11 10° SE daylight
25 Oct - 17:51:12 10° WSW 17:58:44 23° SSW 18:09:28 10° SSE daylight
26 Oct - 10:16:27 10° SSW 10:19:08 17° SSE 10:22:08 10° ESE daylight
26 Oct - 12:26:58 10° WSW 12:31:15 45° S 12:37:44 10° E daylight
26 Oct - 14:38:40 10° W 14:44:20 45° S 14:53:57 10° ESE daylight
26 Oct - 16:51:33 10° WSW 16:58:31 28° SSW 17:09:10 10° SSE daylight
26 Oct - 19:12:39 10° SW 19:13:49 10° SSW 19:15:00 10° SSW visible
27 Oct - 11:28:33 10° SW 11:32:19 36° SSE 11:37:19 10° E daylight
27 Oct - 13:40:05 10° WSW 13:44:58 47° S 13:52:55 10° ESE daylight
27 Oct - 15:52:24 10° WSW 15:58:37 31° SSW 16:08:29 10° SE daylight
27 Oct - 18:08:19 10° WSW 18:13:24 14° SSW 18:19:38 10° S daylight
28 Oct - 10:30:11 10° SW 10:33:29 25° SSE 10:37:17 10° ESE daylight
28 Oct - 12:41:33 10° WSW 12:45:49 45° S 12:52:14 10° ESE daylight
28 Oct - 14:53:33 10° WSW 14:58:58 35° SSW 15:07:42 10° SE daylight
28 Oct - 17:07:38 10° WSW 17:13:13 18° SSW 17:20:45 10° SSE daylight
